ONEWEB-0698, 61604

Orbit data source: Space-Track

ONEWEB-0698, 61604 is a payload satellite owned by Eut. One Web (UK) in LEO that was launched on Sun, 20 Oct 2024 UTC via an FALCON 9 launch vehicle from the Air Force Western Test Range (AFWTR). Payload-class satellites include a variety of spacecraft equipped with specific instruments for various scientific and technological missions. These include communications satellites like Starlink; space stations such as the ISS; scientific satellites like the Hubble; Earth observation satellites from companies like Planet Labs, Umbra, and HawkEye 360; GPS; miniature CubeSats for education and research; and military/defense satellites.

Loading next visibility...
Identifier
61604, 2024-188L
Orbit
LEO
Last TLE update
14 hours ago
Origin
Manufacturer
One Web
Mission
Operational Commercial Communications
Bus & Motor
ARROW, Unknown motor
Mass
148 kg wet, ~140 kg dry
Launch date (UTC)
2024-10-20 (9 months ago)
Launch vehicle
FALCON 9
Launch site
Air Force Western Test Range (AFWTR)
Object type
Payload
Rocket body
Debris
Shape & HBR
Trap Box + 2 Pan, 5 m
Radar Cross Section
2.032 m², Large (>1 m²)

Expand to show TLE details & history

TLE from 14 hours ago
0 ONEWEB-0698
1 61604U 24188L   25189.71459537  .00000553  00000-0  15239-2 0  9991
2 61604  87.8825  89.5631 0003008  78.9471 281.1995 13.11416876 39450
Epoch: 2025-07-08T17:09Z
TLE epoch observation values (Epoch: 2025-07-08T17:09:01.039Z)
Latitude
-0.00006°
Longitude
-94.59684°
Altitude
1,220.129 km
Speed
7.244 km/s
True Right ascension
05h 58m 15s
True Declination
0° 00' 00"
Sunlit
Object was in daylight at epoch
Visualization orbit readout
Latitude
33.95916°
Longitude
83.87081°
Altitude
1,221.318 km
Speed
7.247 km/s
Apparent Right ascension
15h 17m 07s
Apparent Declination
4° 21' 33"
Sunlit
Object is in daylight
Visualization observer readout
Local Sidereal Time
18:51:59
Azimuth
248.272° W
Elevation
30.088°
Doppler factor
1
Orbital elements
Apogee altitude
1,217.085 km
Perigee altitude
1,212.517 km
Semi-major axis
7,592.938 km
Eccentricity
0.0003
Inclination
87.8825°
RAAN
89.5631°
Arg. of periapsis
78.9471°
True anomaly
Unknown
Mean anomaly
281.1995°
Eccentric anomaly
Unknown
Mean motion
3.28041 °/min
Orbital period
109.74 mins
BSTAR
0.0015239
Loading maneuver chart data...
Loading SW <> Apogee altitude chart data...
Loading historical data...
Loading historical data...
Loading historical data...
Loading historical data...
Loading historical data...
Loading historical data...
Loading historical data...

ONEWEB-0698 Visibility forecast

Observer location: undefined°, undefined°

Span
Click to sort rows by Start time (UTC) header in descending order
Start Az.
Max El. time (UTC)
Max El. Az.
Max El.
End time (UTC)
End Az.
4 mins2025-07-09 06:42:36.859Z247.954° W2025-07-09 06:42:36.859Z247.954° W26.513°2025-07-09 06:46:36.859Z218.953° SW
11 mins2025-07-09 17:04:36.859Z145.399° SSE2025-07-09 17:09:36.859Z82.703° E35.553°2025-07-09 17:15:36.859Z15.614° NNE
11 mins2025-07-09 18:54:36.859Z226.312° WSW2025-07-09 18:59:36.859Z279.83° WNW27.821°2025-07-09 19:05:36.859Z339.425° N
11 mins2025-07-10 04:33:36.859Z21.865° NNE2025-07-10 04:38:36.859Z75.662° E30.646°2025-07-10 04:44:36.859Z142.082° SSE
11 mins2025-07-10 06:23:36.859Z338.645° N2025-07-10 06:28:36.859Z282.406° WNW32.628°2025-07-10 06:34:36.859Z216.357° SW
|